This is the latest recevied weather packets stored in our database for station/object SP1BMW-13. If no packets are shown the sender has not sent any weather packets the latest 10 day(s).
| Time | Temp. | Humidity | Pressure | Rain* | Wind** | Luminosity | Snow |
|---|---|---|---|---|---|---|---|
| 1787479243 | 16.67° C | 70% | 1017.5 hPa | 0 mm | 0.89 m/s, 225° | 71 W/m² | - |
| 1787479184 | 16.67° C | 70% | 1017.4 hPa | 0 mm | 1.79 m/s, 335° | 80 W/m² | - |
| 1787479123 | 16.67° C | 70% | 1017.3 hPa | 0 mm | 1.79 m/s, 286° | 97 W/m² | - |
| 1787479063 | 16.67° C | 69% | 1017.3 hPa | 0 mm | 2.24 m/s, 276° | 125 W/m² | - |
| 1787479004 | 16.67° C | 69% | 1017.5 hPa | 0 mm | 0.89 m/s, 244° | 147 W/m² | - |
| 1787478944 | 16.67° C | 69% | 1017.3 hPa | 0 mm | 1.34 m/s, 292° | 147 W/m² | - |
| 1787478884 | 16.67° C | 70% | 1017.4 hPa | 0 mm | 2.24 m/s, 262° | 127 W/m² | - |
| 1787478823 | 16.67° C | 69% | 1017.4 hPa | 0 mm | 3.13 m/s, 250° | 134 W/m² | - |
| 1787478763 | 16.67° C | 69% | 1017.3 hPa | 0 mm | 2.68 m/s, 162° | 156 W/m² | - |
| 1787478704 | 16.67° C | 70% | 1017.5 hPa | 0 mm | 2.68 m/s, 237° | 184 W/m² | - |
| 1787478611 | 16.67° C | 71% | 1017.3 hPa | 0 mm | 0.89 m/s, 237° | 186 W/m² | - |
| 1787478550 | 16.67° C | 70% | 1017.4 hPa | 0 mm | 1.34 m/s, 270° | 177 W/m² | - |
| 1787478491 | 16.67° C | 70% | 1017.3 hPa | 0 mm | 1.34 m/s, 343° | 187 W/m² | - |
| 1787478430 | 16.67° C | 71% | 1017.4 hPa | 0 mm | 0.89 m/s, 199° | 240 W/m² | - |
| 1787478370 | 16.67° C | 70% | 1017.3 hPa | 0 mm | 1.34 m/s, 274° | 298 W/m² | - |
| 1787478310 | 16.11° C | 71% | 1017.6 hPa | 0 mm | 1.34 m/s, 235° | 305 W/m² | - |
| 1787478251 | 16.11° C | 71% | 1017.4 hPa | 0 mm | 1.34 m/s, 107° | 301 W/m² | - |
| 1787478190 | 16.11° C | 71% | 1017.3 hPa | 0 mm | 0.89 m/s, 101° | 332 W/m² | - |
| 1787478130 | 16.11° C | 72% | 1017.4 hPa | 0 mm | 1.79 m/s, 160° | 339 W/m² | - |
| 1787478070 | 16.11° C | 73% | 1017.4 hPa | 0 mm | 0.89 m/s, 222° | 312 W/m² | - |
| 1787478011 | 15.56° C | 72% | 1017.6 hPa | 0 mm | 2.68 m/s, 212° | 274 W/m² | - |
| 1787477951 | 15.56° C | 73% | 1017.2 hPa | 0 mm | 1.79 m/s, 311° | 241 W/m² | - |
| 1787477891 | 15.56° C | 73% | 1017.5 hPa | 0 mm | 2.24 m/s, 164° | 226 W/m² | - |
| 1787477831 | 15.56° C | 74% | 1017.2 hPa | 0 mm | 2.68 m/s, 288° | 217 W/m² | - |
| 1787477771 | 15.56° C | 74% | 1017.4 hPa | 0 mm | 1.79 m/s, 257° | 210 W/m² | - |
* Rain latest hour (hover to see other rain measurements)
** Current wind speed in m/s (hover to see current wind gust speed)